Weather reports worldwide

Advertisment
Solenzara, France (7765): temperature & dewpoint: 11.10.2018 08:00:00 - 17.10.2018 08:00:00 (CEST)Solenzara, France (7765): temperature 5cm: 11.10.2018 08:00:00 - 17.10.2018 08:00:00 (CEST)Solenzara, France (7765): temperature -20cm: 11.10.2018 08:00:00 - 17.10.2018 08:00:00 (CEST)Solenzara, France (7765): wind speed & gusts: 11.10.2018 08:00:00 - 17.10.2018 08:00:00 (CEST)Solenzara, France (7765): wind direction: 11.10.2018 08:00:00 - 17.10.2018 08:00:00 (CEST)Solenzara, France (7765): reduced air pressure: 11.10.2018 08:00:00 - 17.10.2018 08:00:00 (CEST)Solenzara, France (7765): visibility: 11.10.2018 08:00:00 - 17.10.2018 08:00:00 (CEST)Solenzara, France (7765): sunshine duration: 11.10.2018 08:00:00 - 17.10.2018 08:00:00 (CEST)Solenzara, France (7765): precipitation: 11.10.2018 08:00:00 - 17.10.2018 08:00:00 (CEST)
Date & Time tt [°C] td [°C] tt 5cm [°C] tt -20cm [°C] ff [km/h] ff [kn] fx [km/h] fx [kn] dd ppp [hPa] vv [km] sd [min] rr [mm]
17.10.2018 08:00:00 17,5 16,2 16,5 20,2 9 5 19 10 NNW 1015,0 20 0 0,2
17.10.2018 07:00:00 17,2 15,7 16,3 20,3 11 6 25 14 NNW 1014,9 6 0 4,0
17.10.2018 06:00:00 17,2 15,7 16,3 20,5 9 5 14 8 NW 1015,0 3,1 0 5,8
17.10.2018 05:00:00 17,4 16,3 16,3 20,6 6 4 13 7 WNW 1015,4 7 0 5,7
17.10.2018 04:00:00 17,6 15,6 16,1 20,6 6 3 18 10 WSW 1015,6 7 0 0,6
17.10.2018 03:00:00 17,5 14,6 15,7 20,7 7 4 17 9 W 1015,9 60 0 0,0
17.10.2018 02:00:00 17,2 14,7 15,3 20,7 11 6 17 9 W 1016,4 60 0 0,0
17.10.2018 01:00:00 16,8 14,4 15,3 20,8 9 5 16 9 WNW 1016,6 58 0 0,0
17.10.2018 00:00:00 17,0 14,8 15,6 20,8 10 5 17 9 W 1016,7 51 0 0,0
16.10.2018 23:00:00 17,4 15,4 15,8 20,8 8 5 13 7 W 1017,1 53 0 0,0
16.10.2018 22:00:00 17,8 16,0 16,2 20,9 8 4 13 7 W 1017,1 50 0 0,0
16.10.2018 21:00:00 18,2 16,5 16,5 20,9 7 4 13 7 W 1016,8 46 0 0,0
16.10.2018 20:00:00 18,8 16,9 16,8 20,8 4 2 9 5 W 1016,6 41 0 0,0
16.10.2018 19:00:00 19,5 17,5 17,6 20,8 5 3 9 5 W 1016,2 30 0 0,0
16.10.2018 18:00:00 20,7 18,1 19,3 20,7 3 1 5 3 NW 1015,9 37 0 0,0
16.10.2018 17:00:00 21,1 17,9 20,1 20,6 5 3 16 9 E 1015,8 41 27 0,0
16.10.2018 16:00:00 22,2 18,4 21,5 20,5 11 6 24 13 NNE 1015,3 47 60 0,0
16.10.2018 15:00:00 21,9 17,9 21,1 20,4 18 10 29 16 N 1015,2 60 60 0,0
16.10.2018 14:00:00 20,4 17,2 19,5 20,4 20 11 29 16 N 1015,3 14 48 0,4
16.10.2018 13:00:00 18,9 17,6 18,6 20,4 9 5 23 13 NW 1015,8 14 0 0,0
16.10.2018 12:00:00 18,8 17,6 18,1 20,4 16 9 24 13 N 1016,0 14 0 0,0
16.10.2018 11:00:00 18,5 17,3 17,4 20,5 15 8 26 14 N 1016,0 16 0 0,4
16.10.2018 10:00:00 18,1 16,8 17,3 20,6 14 8 29 16 N 1015,9 9 0 4,2
16.10.2018 09:00:00 18,0 16,5 16,3 20,7 15 8 24 13 NNW 1015,7 11 0 2,2
16.10.2018 08:00:00 17,0 15,7 16,0 20,8 9 5 16 9 NW 1015,6 7 0 1,8
16.10.2018 07:00:00 16,8 15,5 15,9 21,0 5 3 25 14 WNW 1015,8 2,7 0 10,0
16.10.2018 06:00:00 17,1 15,1 16,1 21,1 12 7 21 11 W 1015,3 3,1 0 4,0
16.10.2018 05:00:00 17,6 15,6 16,3 21,2 10 5 21 12 WNW 1015,4 7 0 1,4
16.10.2018 04:00:00 18,1 15,4 16,6 21,2 7 4 16 8 W 1015,4 14 0 0,0
16.10.2018 03:00:00 18,3 15,0 16,8 21,3 9 5 15 8 W 1015,8 23 0 0,0
16.10.2018 02:00:00 18,5 15,0 17,0 21,3 8 4 13 7 W 1016,3 22 0 0,0
16.10.2018 01:00:00 18,8 15,1 17,5 21,3 6 3 14 8 W 1016,4 21 0 0,0
16.10.2018 00:00:00 19,0 15,3 17,8 21,4 8 4 11 6 W 1016,8 17 0 0,0
15.10.2018 23:00:00 19,1 15,6 17,9 21,4 6 4 11 6 W 1016,9 16 0 0,0
15.10.2018 22:00:00 19,3 16,0 18,2 21,4 4 2 12 7 WNW 1016,7 17 0 0,0
15.10.2018 21:00:00 19,5 16,2 18,3 21,4 7 4 11 6 W 1016,3 16 0 0,0
15.10.2018 20:00:00 19,5 16,3 18,3 21,4 8 5 12 7 W 1016,2 15 0 0,0
15.10.2018 19:00:00 20,6 16,4 18,6 21,3 4 2 9 5 NW 1016,1 15 0 0,0
15.10.2018 18:00:00 20,9 16,1 20,0 21,3 5 3 12 7 E 1015,9 19 0 0,0
15.10.2018 17:00:00 21,5 16,0 21,6 21,1 9 5 15 8 E 1015,5 19 9 0,0
15.10.2018 16:00:00 21,7 16,4 21,9 20,9 9 5 15 8 E 1015,3 18 20 0,0
15.10.2018 15:00:00 22,7 16,3 23,7 20,8 9 5 16 8 E 1015,2 20 56 0,0
15.10.2018 14:00:00 22,8 16,3 24,3 20,6 10 6 14 8 E 1015,5 19 60 0,0
15.10.2018 13:00:00 21,9 16,0 24,0 20,5 8 4 16 9 ENE 1015,9 19 60 0,0
15.10.2018 12:00:00 21,8 16,1 23,6 20,4 7 4 11 6 ENE 1016,3 19 55 0,0
15.10.2018 11:00:00 21,7 16,4 20,2 20,4 4 2 10 5 N 1016,4 16 48 0,0
15.10.2018 10:00:00 18,9 14,2 18,2 20,5 8 4 14 7 W 1016,0 21 7 0,0
15.10.2018 09:00:00 17,4 12,7 14,4 20,6 9 5 20 11 W 1015,8 21 18 0,8
15.10.2018 08:00:00 15,6 11,8 13,7 20,7 12 6 19 10 W 1015,5 20 0 0,0
15.10.2018 07:00:00 15,7 11,3 13,9 20,8 10 6 21 11 W 1015,4 23 0 0,0
15.10.2018 06:00:00 15,7 10,9 13,8 20,9 11 6 20 11 W 1015,3 25 0 0,0
15.10.2018 05:00:00 15,6 10,8 13,8 21,0 11 6 19 10 W 1015,4 25 0 0,0
15.10.2018 04:00:00 15,5 10,7 13,8 21,2 11 6 22 12 WNW 1015,8 24 0 0,0
15.10.2018 03:00:00 15,9 10,9 13,9 21,3 11 6 20 11 W 1016,2 25 0 0,0
15.10.2018 02:00:00 15,8 11,2 14,1 21,4 11 6 21 11 W 1016,3 25 0 0,0
15.10.2018 01:00:00 16,0 11,2 14,1 21,5 12 7 21 11 W 1016,4 26 0 0,0
15.10.2018 00:00:00 16,0 11,4 14,2 21,6 11 6 19 11 W 1016,9 27 0 0,0
14.10.2018 23:00:00 16,3 11,7 14,2 21,7 10 6 18 10 W 1016,8 28 0 0,0
14.10.2018 22:00:00 17,0 11,7 14,6 21,8 8 5 18 10 W 1016,8 28 0 0,0
14.10.2018 21:00:00 17,4 11,7 15,3 21,8 10 5 17 9 W 1016,7 31 0 0,0
14.10.2018 20:00:00 17,9 12,3 15,7 21,8 9 5 18 10 W 1016,7 32 0 0,0
14.10.2018 19:00:00 18,3 13,4 16,5 21,8 9 5 16 9 W 1016,3 29 5 0,0
14.10.2018 18:00:00 21,3 15,6 19,3 21,7 0 0 8 5 N 1016,2 24 60 0,0
14.10.2018 17:00:00 21,9 15,5 21,8 21,5 7 4 14 8 ESE 1016,2 27 60 0,0
14.10.2018 16:00:00 22,2 14,3 23,3 21,3 9 5 14 7 ESE 1016,4 36 60 0,0
14.10.2018 15:00:00 23,1 12,7 25,0 21,1 8 5 13 7 ESE 1016,7 52 60 0,0
14.10.2018 14:00:00 23,0 15,3 25,8 20,9 6 4 12 7 E 1017,4 23 60 0,0
14.10.2018 13:00:00 22,4 15,3 25,6 20,7 8 4 15 8 E 1018,1 20 60 0,0
14.10.2018 12:00:00 22,2 16,0 23,5 20,6 8 5 14 7 ENE 1018,4 20 60 0,0
14.10.2018 11:00:00 21,1 15,4 21,8 20,6 6 4 11 6 NNE 1018,7 17 60 0,0
14.10.2018 10:00:00 20,0 14,1 18,4 20,7 3 1 14 7 WNW 1018,9 20 60 0,0
14.10.2018 09:00:00 16,6 11,9 13,6 20,8 9 5 15 8 W 1018,9 20 60 0,0
14.10.2018 08:00:00 14,7 10,9 12,6 20,9 11 6 18 10 W 1018,6 26 0 0,0
14.10.2018 07:00:00 14,6 11,0 12,5 21,0 10 5 16 8 W 1018,6 25 0 0,0
14.10.2018 06:00:00 15,1 11,1 12,7 21,2 9 5 15 8 W 1018,8 23 0 0,0
14.10.2018 05:00:00 15,2 11,4 13,1 21,3 10 5 18 10 W 1018,7 22 0 0,0
14.10.2018 04:00:00 15,5 11,5 13,4 21,4 11 6 20 11 WNW 1019,0 24 0 0,0
14.10.2018 03:00:00 15,6 11,6 13,5 21,5 10 5 18 10 W 1019,4 23 0 0,4
14.10.2018 02:00:00 15,9 11,9 14,0 21,6 11 6 20 11 W 1019,7 23 0 0,0
14.10.2018 01:00:00 16,1 12,1 14,2 21,7 11 6 18 10 W 1020,1 22 0 0,0
14.10.2018 00:00:00 16,3 12,5 14,5 21,8 11 6 18 10 W 1020,4 21 0 0,0
13.10.2018 23:00:00 16,8 13,3 14,7 22,0 9 5 14 8 W 1020,5 18 0 0,0
13.10.2018 22:00:00 17,1 14,0 15,3 22,0 9 5 16 9 W 1020,6 16 0 0,0
13.10.2018 21:00:00 17,4 15,0 15,7 22,1 9 5 16 9 W 1020,7 13 0 0,0
13.10.2018 20:00:00 18,0 15,8 16,3 22,1 8 4 13 7 W 1020,8 11 0 0,0
13.10.2018 19:00:00 19,6 16,4 17,0 22,0 5 3 6 4 W 1020,8 14 1 0,0
13.10.2018 18:00:00 21,0 16,4 19,2 21,9 4 2 7 4 NE 1020,7 19 49 0,0
13.10.2018 17:00:00 21,8 16,7 21,7 21,8 5 3 13 7 E 1021,0 18 60 0,0
13.10.2018 16:00:00 22,1 17,2 22,8 21,5 8 4 16 9 ENE 1021,0 17 60 0,0
13.10.2018 15:00:00 22,4 17,7 24,5 21,3 11 6 16 9 E 1021,2 18 60 0,0
13.10.2018 14:00:00 22,7 18,0 26,0 21,1 10 5 20 11 E 1021,9 17 60 0,0
13.10.2018 13:00:00 22,5 17,4 25,6 20,9 15 8 22 12 ENE 1022,4 19 60 0,0
13.10.2018 12:00:00 22,8 17,5 24,3 20,8 15 8 21 12 ENE 1022,7 19 60 0,0
13.10.2018 11:00:00 22,2 16,9 22,7 20,8 12 7 19 11 NNE 1022,8 19 60 0,0
13.10.2018 10:00:00 21,9 17,1 20,5 20,9 13 7 18 10 N 1023,0 20 60 0,0
13.10.2018 09:00:00 18,4 13,5 15,0 20,9 10 6 18 10 W 1023,1 42 44 0,0
13.10.2018 08:00:00 16,4 12,0 14,1 21,1 11 6 20 11 W 1022,6 57 0 0,0
13.10.2018 07:00:00 16,4 12,0 14,2 21,2 13 7 22 12 W 1022,6 60 0 0,0
13.10.2018 06:00:00 16,4 12,2 14,2 21,3 10 6 21 11 W 1022,5 60 0 0,0
13.10.2018 05:00:00 16,8 12,3 14,5 21,4 8 4 18 10 WNW 1022,4 41 0 0,0
13.10.2018 04:00:00 17,3 12,8 14,9 21,5 10 6 18 10 W 1022,3 60 0 0,0
13.10.2018 03:00:00 17,3 13,6 14,4 21,6 10 5 16 9 W 1022,9 60 0 0,0
13.10.2018 02:00:00 16,8 13,9 14,6 21,7 4 2 16 9 NW 1023,3 37 0 0,0
13.10.2018 01:00:00 17,4 14,3 15,1 21,8 6 3 19 10 WNW 1023,5 44 0 0,0
13.10.2018 00:00:00 17,9 14,4 15,9 21,9 10 5 20 11 W 1023,8 54 0 0,0
12.10.2018 23:00:00 17,8 15,1 16,2 21,9 10 5 17 9 W 1024,1 39 0 0,0
12.10.2018 22:00:00 18,2 15,6 16,4 22,0 10 5 13 7 W 1024,1 30 0 0,0
12.10.2018 21:00:00 18,6 16,0 16,9 22,1 10 5 14 8 W 1024,2 31 0 0,0
12.10.2018 20:00:00 18,8 16,0 17,3 22,1 10 5 14 7 W 1023,9 36 0 0,0
12.10.2018 19:00:00 20,0 16,4 17,9 22,0 6 3 9 5 W 1023,2 40 0 0,0
12.10.2018 18:00:00 22,4 16,7 20,3 21,9 5 3 7 4 E 1022,8 52 48 0,0
12.10.2018 17:00:00 22,7 14,8 22,7 21,7 4 2 11 6 ESE 1023,0 40 60 0,0
12.10.2018 16:00:00 23,4 16,7 24,2 21,5 9 5 16 9 E 1023,3 43 60 0,0
12.10.2018 15:00:00 23,2 15,8 25,0 21,3 11 6 21 11 ENE 1023,4 30 60 0,0
12.10.2018 14:00:00 23,1 17,8 25,7 21,1 16 8 21 12 ENE 1023,7 32 60 0,0
12.10.2018 13:00:00 23,2 17,6 26,3 20,9 12 6 18 10 ENE 1024,0 34 60 0,0
12.10.2018 12:00:00 23,4 17,8 24,5 20,7 10 5 19 10 NNE 1024,2 53 60 0,0
12.10.2018 11:00:00 22,3 17,0 20,9 20,7 10 5 14 8 NE 1024,2 20 48 0,0
12.10.2018 10:00:00 21,6 17,0 20,2 20,7 8 4 12 6 N 1023,7 55 60 0,0
12.10.2018 09:00:00 18,6 16,0 16,8 20,8 7 4 16 9 W 1023,0 45 47 0,0
12.10.2018 08:00:00 17,2 15,4 15,2 20,8 9 5 18 10 W 1022,5 38 5 0,0
12.10.2018 07:00:00 16,8 15,3 15,4 20,9 10 6 14 8 W 1022,2 29 0 0,0
12.10.2018 06:00:00 17,0 15,3 15,4 21,0 7 4 13 7 W 1022,0 20 0 0,0
12.10.2018 05:00:00 17,2 15,5 15,2 21,0 7 4 13 7 WNW 1021,5 28 0 0,0
12.10.2018 04:00:00 17,2 15,9 15,1 21,1 3 2 9 5 NNW 1021,1 17 0 0,0
12.10.2018 03:00:00 18,2 16,4 16,9 21,1 8 4 20 11 NNW 1021,0 27 0 0,0
12.10.2018 02:00:00 18,5 17,2 17,6 21,1 11 6 14 8 N 1021,1 20 0 0,0
12.10.2018 01:00:00 19,0 17,3 18,3 21,1 7 4 13 7 NNW 1020,8 26 0 0,0
12.10.2018 00:00:00 19,2 17,7 18,4 21,2 8 4 15 8 NNW 1020,9 26 0 0,0
11.10.2018 23:00:00 19,1 17,8 18,4 21,2 8 4 14 8 NNW 1020,8 20 0 0,0
11.10.2018 22:00:00 19,1 17,9 18,4 21,2 6 3 10 6 NW 1020,5 20 0 0,0
11.10.2018 21:00:00 19,1 17,8 18,3 21,2 4 2 22 12 N 1019,9 20 0 0,0
11.10.2018 20:00:00 19,0 17,7 18,3 21,2 5 3 23 12 NNW 1019,4 7 0 0,2
11.10.2018 19:00:00 19,5 17,8 18,7 21,1 14 8 20 11 E 1019,0 4,7 0 0,6
11.10.2018 18:00:00 19,6 18,4 18,8 21,1 5 3 13 7 NNE 1018,5 14 0 0,4
11.10.2018 17:00:00 19,6 18,1 19,0 21,0 4 2 16 9 SW 1018,3 4,0 0 0,2
11.10.2018 16:00:00 20,7 18,1 21,8 20,9 2 1 7 4 W 1018,0 20 0 0,0
11.10.2018 15:00:00 20,8 18,6 21,7 20,8 2 1 11 6 NW 1017,8 20 0 0,0
11.10.2018 14:00:00 20,3 18,1 20,5 20,7 6 3 23 12 SW 1017,8 28 0 0,0
11.10.2018 13:00:00 19,8 18,3 20,4 20,7 16 8 26 14 S 1018,2 14 0 0,0
11.10.2018 12:00:00 20,5 17,9 19,8 20,6 10 6 19 11 NE 1018,2 53 45 0,0
11.10.2018 11:00:00 19,5 18,3 19,1 20,6 13 7 19 10 N 1017,9 52 0 0,0
11.10.2018 10:00:00 18,8 17,8 17,6 20,6 4 2 20 11 N 1017,7 13 0 0,8
11.10.2018 09:00:00 18,0 16,8 17,4 20,7 10 5 16 8 NNE 1017,5 4,5 0 2,4
11.10.2018 08:00:00 17,8 16,3 16,6 20,7 12 7 21 11 NNW 1016,8 19 0 0,0

tt = temperature
td = dewpoint
tt 5cm = temperature 5cm
tt -20cm = temperature -20cm
ff = wind speed
fx = gusts
dd = wind direction
ppp = reduced air pressure
vv = visibility
sd = sunshine duration
rr = precipitation

Next stations